| time (UTC) | temp F | wind direction | speed knots | gust knots | rain 1hr in | rain 24hr in | rain mn in | humidity % | barometer mb |
| 20260505200904 | 74 | 168 | 8.7 | 19.1 | 0.01 | 0.02 | 0.02 | 58 | 1005.1 |
| 20260505200004 | 74 | 160 | 10.4 | 18.2 | 0.00 | 0.02 | 0.02 | 59 | 1005.1 |
| 20260505195404 | 74 | 163 | 11.3 | 20.0 | 0.00 | 0.02 | 0.01 | 59 | 1005.1 |
| 20260505194525 | 74 | 149 | 7.8 | 18.2 | 0.00 | 0.01 | 0.01 | 60 | 1005.1 |
| 20260505193626 | 74 | 142 | 7.8 | 16.5 | 0.00 | 0.01 | 0.01 | 60 | 1005.1 |
| 20260505192704 | 75 | 165 | 6.1 | 15.6 | 0.00 | 0.01 | 0.01 | 60 | 1005.1 |
| 20260505191804 | 74 | 160 | 6.1 | 14.8 | 0.00 | 0.01 | 0.01 | 59 | 1005.1 |
| 20260505190904 | 74 | 150 | 7.0 | 14.8 | 0.00 | 0.01 | 0.01 | 60 | 1005.1 |
| 20260505190025 | 73 | 156 | 7.8 | 15.6 | 0.00 | 0.01 | 0.01 | 61 | 1005.1 |
| 20260505185404 | 73 | 152 | 8.7 | 15.6 | 0.01 | 0.01 | 0.01 | 61 | 1005.1 |
| 20260505184504 | 74 | 149 | 7.8 | 16.5 | 0.01 | 0.01 | 0.01 | 60 | 1005.1 |
| 20260505183604 | 75 | 156 | 7.0 | 13.9 | 0.01 | 0.01 | 0.01 | 59 | 1005.1 |
| 20260505182704 | 75 | 158 | 7.0 | 14.8 | 0.01 | 0.01 | 0.01 | 59 | 1005.1 |
| 20260505181804 | 75 | 166 | 6.1 | 14.8 | 0.01 | 0.01 | 0.01 | 59 | 1005.1 |
| 20260505180904 | 77 | 168 | 8.7 | 17.4 | 0.01 | 0.01 | 0.01 | 58 | 1005.1 |
| 20260505180025 | 77 | 190 | 8.7 | 19.1 | 0.00 | 0.00 | 0.00 | 53 | 1005.1 |
| 20260505175404 | 77 | 194 | 7.8 | 20.0 | 0.00 | 0.00 | 0.00 | 53 | 1005.1 |
| 20260505174504 | 77 | 189 | 6.1 | 13.0 | 0.00 | 0.00 | 0.00 | 54 | 1005.1 |
| 20260505173604 | 77 | 192 | 6.1 | 12.2 | 0.00 | 0.00 | 0.00 | 54 | 1005.1 |
| 20260505172704 | 76 | 178 | 6.1 | 13.0 | 0.00 | 0.00 | 0.00 | 54 | 1005.1 |
| 20260505171804 | 75 | 183 | 7.8 | 17.4 | 0.00 | 0.00 | 0.00 | 55 | 1005.1 |
| 20260505170904 | 75 | 171 | 7.8 | 17.4 | 0.00 | 0.00 | 0.00 | 56 | 1005.1 |
| 20260505170004 | 75 | 178 | 6.1 | 13.0 | 0.00 | 0.01 | 0.00 | 56 | 1005.1 |
| 20260505165404 | 75 | 190 | 5.2 | 12.2 | 0.00 | 0.02 | 0.00 | 55 | 1005.1 |
| 20260505164504 | 73 | 185 | 7.0 | 18.2 | 0.00 | 0.02 | 0.00 | 57 | 1005.1 |
| 20260505163604 | 72 | 178 | 7.8 | 13.9 | 0.00 | 0.02 | 0.00 | 57 | 1005.1 |
| 20260505162725 | 72 | 180 | 7.0 | 16.5 | 0.00 | 0.02 | 0.00 | 58 | 1005.1 |
| 20260505161804 | 73 | 180 | 7.0 | 18.2 | 0.00 | 0.02 | 0.00 | 57 | 1005.1 |
| 20260505160904 | 72 | 169 | 6.1 | 12.2 | 0.00 | 0.02 | 0.00 | 57 | 1005.1 |
| 20260505152705 | 70 | 183 | 6.1 | 13.9 | 0.00 | 0.02 | 0.00 | 59 | 1005.1 |
| 20260505151804 | 70 | 190 | 6.1 | 12.2 | 0.00 | 0.02 | 0.00 | 59 | 1005.1 |
| 20260505150925 | 69 | 180 | 7.0 | 14.8 | 0.00 | 0.02 | 0.00 | 59 | 1005.1 |
| 20260505124504 | 60 | 163 | 4.3 | 9.6 | 0.00 | 0.02 | 0.00 | 69 | 1005.1 |
| 20260505123604 | 58 | 167 | 4.3 | 9.6 | 0.00 | 0.02 | 0.00 | 69 | 1005.1 |
| 20260505122725 | 57 | 171 | 5.2 | 9.6 | 0.00 | 0.02 | 0.00 | 71 | 1005.1 |
| 20260505121805 | 57 | 179 | 4.3 | 7.0 | 0.00 | 0.02 | 0.00 | 72 | 1005.1 |
| 20260505120905 | 56 | 174 | 3.5 | 7.8 | 0.00 | 0.02 | 0.00 | 72 | 1005.1 |
| 20260505120025 | 56 | 173 | 5.2 | 9.6 | 0.00 | 0.02 | 0.00 | 73 | 1005.1 |
| 20260505115404 | 56 | 174 | 3.5 | 8.7 | 0.00 | 0.02 | 0.00 | 73 | 1005.1 |
| 20260505114505 | 55 | 178 | 4.3 | 9.6 | 0.00 | 0.02 | 0.00 | 74 | 1005.1 |
| 20260505113604 | 54 | 179 | 5.2 | 10.4 | 0.00 | 0.02 | 0.00 | 75 | 1005.1 |
| 20260505112704 | 54 | 170 | 4.3 | 8.7 | 0.00 | 0.02 | 0.00 | 75 | 1005.1 |
| 20260505111804 | 54 | 168 | 5.2 | 8.7 | 0.00 | 0.02 | 0.00 | 75 | 1005.1 |
| 20260505110905 | 53 | 174 | 5.2 | 8.7 | 0.00 | 0.02 | 0.00 | 75 | 1005.1 |
| 20260505101804 | 52 | 171 | 4.3 | 8.7 | 0.00 | 0.02 | 0.00 | 77 | 1005.1 |
| 20260505100925 | 53 | 165 | 3.5 | 8.7 | 0.00 | 0.02 | 0.00 | 76 | 1005.1 |
| 20260505100005 | 53 | 165 | 4.3 | 7.8 | 0.00 | 0.02 | 0.00 | 75 | 1005.1 |
| 20260505095404 | 53 | 171 | 3.5 | 7.8 | 0.00 | 0.02 | 0.00 | 75 | 1005.1 |
| 20260505094504 | 53 | 167 | 3.5 | 7.8 | 0.00 | 0.02 | 0.00 | 75 | 1005.1 |
| 20260505093605 | 53 | 173 | 3.5 | 5.2 | 0.00 | 0.02 | 0.00 | 75 | 1005.1 |
| 20260505092725 | 53 | 183 | 3.5 | 6.1 | 0.00 | 0.02 | 0.00 | 74 | 1005.1 |
| 20260505091804 | 54 | 183 | 2.6 | 5.2 | 0.00 | 0.02 | 0.00 | 73 | 1005.1 |
| 20260505090904 | 54 | 186 | 2.6 | 5.2 | 0.00 | 0.02 | 0.00 | 74 | 1005.1 |
| 20260505090004 | 54 | 167 | 3.5 | 6.1 | 0.00 | 0.02 | 0.00 | 73 | 1005.1 |
| 20260505085405 | 54 | 158 | 3.5 | 7.8 | 0.00 | 0.02 | 0.00 | 73 | 1005.1 |
| 20260505084504 | 54 | 166 | 4.3 | 8.7 | 0.00 | 0.02 | 0.00 | 73 | 1005.1 |
| 20260505083625 | 55 | 161 | 3.5 | 8.7 | 0.00 | 0.02 | 0.00 | 72 | 1005.1 |
| 20260505082705 | 55 | 166 | 4.3 | 8.7 | 0.00 | 0.02 | 0.00 | 71 | 1005.1 |
| 20260505081805 | 55 | 169 | 3.5 | 8.7 | 0.00 | 0.02 | 0.00 | 72 | 1005.1 |
| 20260505080904 | 55 | 174 | 3.5 | 7.8 | 0.00 | 0.02 | 0.00 | 71 | 1005.1 |
| 20260505080004 | 55 | 175 | 4.3 | 8.7 | 0.00 | 0.02 | 0.00 | 71 | 1005.1 |
| 20260505075404 | 55 | 175 | 4.3 | 7.8 | 0.00 | 0.02 | 0.00 | 71 | 1005.1 |
| 20260505074504 | 55 | 172 | 4.3 | 9.6 | 0.00 | 0.02 | 0.00 | 71 | 1005.1 |
| 20260505073604 | 55 | 170 | 3.5 | 7.0 | 0.00 | 0.02 | 0.00 | 70 | 1005.1 |
| 20260505072725 | 55 | 163 | 3.5 | 7.0 | 0.00 | 0.02 | 0.00 | 71 | 1005.1 |
| 20260505071825 | 54 | 187 | 3.5 | 7.0 | 0.00 | 0.02 | 0.00 | 71 | 1005.1 |
| 20260505070904 | 54 | 197 | 2.6 | 7.0 | 0.00 | 0.02 | 0.00 | 72 | 1005.1 |
| 20260505070004 | 55 | 199 | 2.6 | 7.8 | 0.00 | 0.02 | 0.00 | 71 | 1005.1 |
| 20260505065404 | 55 | 191 | 3.5 | 7.8 | 0.00 | 0.02 | 0.00 | 70 | 1005.1 |
| 20260505064504 | 55 | 183 | 3.5 | 7.8 | 0.00 | 0.02 | 0.00 | 70 | 1005.1 |
| 20260505063605 | 55 | 181 | 3.5 | 8.7 | 0.00 | 0.02 | 0.00 | 71 | 1005.1 |
| 20260505062705 | 55 | 185 | 2.6 | 6.1 | 0.00 | 0.02 | 0.00 | 70 | 1005.1 |
| 20260505061804 | 55 | 196 | 2.6 | 7.0 | 0.00 | 0.02 | 0.00 | 70 | 1005.1 |
| 20260505060905 | 56 | 201 | 3.5 | 7.0 | 0.00 | 0.02 | 0.00 | 69 | 1005.1 |
| 20260505060004 | 56 | 192 | 2.6 | 6.1 | 0.00 | 0.02 | 0.00 | 69 | 1005.1 |
| 20260505055404 | 56 | 188 | 3.5 | 7.0 | 0.00 | 0.02 | 0.00 | 69 | 1005.1 |
| 20260505054525 | 56 | 200 | 2.6 | 7.0 | 0.00 | 0.02 | 0.00 | 69 | 1005.1 |
| 20260505053605 | 56 | 201 | 3.5 | 7.0 | 0.00 | 0.02 | 0.00 | 69 | 1005.1 |
| 20260505052704 | 56 | 209 | 3.5 | 7.8 | 0.00 | 0.02 | 0.00 | 68 | 1005.1 |
| 20260505051804 | 56 | 206 | 3.5 | 8.7 | 0.00 | 0.02 | 0.00 | 68 | 1005.1 |
| 20260505050904 | 55 | 200 | 3.5 | 8.7 | 0.00 | 0.02 | 0.00 | 69 | 1005.1 |
| 20260505040905 | 54 | 177 | 5.2 | 12.2 | 0.00 | 0.02 | 0.00 | 71 | 1005.1 |
| 20260505040005 | 53 | 166 | 4.3 | 9.6 | 0.00 | 0.02 | 0.00 | 74 | 1005.1 |
| 20260505035404 | 53 | 165 | 2.6 | 7.0 | 0.00 | 0.02 | 0.02 | 75 | 1005.1 |
| 20260505034504 | 53 | 189 | 1.7 | 3.5 | 0.00 | 0.02 | 0.02 | 74 | 1005.1 |
| 20260505033604 | 53 | 193 | 1.7 | 4.3 | 0.00 | 0.02 | 0.02 | 74 | 1005.1 |
| 20260505032704 | 53 | 183 | 1.7 | 4.3 | 0.00 | 0.02 | 0.02 | 74 | 1005.1 |
| 20260505031825 | 53 | 183 | 2.6 | 4.3 | 0.00 | 0.02 | 0.02 | 73 | 1005.1 |
| 20260505030904 | 53 | 214 | 2.6 | 4.3 | 0.00 | 0.02 | 0.02 | 76 | 1005.1 |
| 20260505030004 | 54 | 204 | 2.6 | 4.3 | 0.00 | 0.02 | 0.02 | 73 | 1005.1 |
| 20260505025404 | 53 | 205 | 2.6 | 4.3 | 0.00 | 0.02 | 0.02 | 74 | 1005.1 |
| 20260505024504 | 54 | 199 | 2.6 | 5.2 | 0.00 | 0.02 | 0.02 | 72 | 1005.1 |
| 20260505023605 | 55 | 185 | 2.6 | 5.2 | 0.00 | 0.02 | 0.02 | 72 | 1005.1 |
| 20260505022704 | 55 | 175 | 1.7 | 4.3 | 0.00 | 0.02 | 0.02 | 71 | 1005.1 |
| 20260505021805 | 56 | 178 | 1.7 | 2.6 | 0.00 | 0.02 | 0.02 | 70 | 1005.1 |
| 20260505020905 | 56 | 177 | 1.7 | 3.5 | 0.00 | 0.02 | 0.02 | 69 | 1005.1 |
| 20260505020004 | 57 | 181 | 1.7 | 2.6 | 0.00 | 0.02 | 0.02 | 68 | 1005.1 |
| 20260505015404 | 57 | 190 | 1.7 | 4.3 | 0.00 | 0.02 | 0.02 | 68 | 1005.1 |
| 20260505014505 | 57 | 181 | 1.7 | 4.3 | 0.00 | 0.02 | 0.02 | 67 | 1005.1 |
| 20260505013604 | 58 | 192 | 1.7 | 2.6 | 0.00 | 0.02 | 0.02 | 66 | 1005.1 |
| 20260505012704 | 58 | 185 | 1.7 | 2.6 | 0.00 | 0.02 | 0.02 | 65 | 1005.1 |
| 20260505011804 | 59 | 171 | 1.7 | 3.5 | 0.00 | 0.02 | 0.02 | 64 | 1005.1 |
| 20260505010904 | 59 | 147 | 2.6 | 5.2 | 0.00 | 0.02 | 0.02 | 63 | 1005.1 |
| 20260505010004 | 60 | 134 | 1.7 | 3.5 | 0.00 | 0.02 | 0.02 | 62 | 1005.1 |
| 20260505005405 | 60 | 109 | 1.7 | 4.3 | 0.00 | 0.02 | 0.02 | 62 | 1005.1 |
| 20260505004504 | 62 | 129 | 1.7 | 4.3 | 0.00 | 0.02 | 0.02 | 58 | 1005.1 |
| 20260505003625 | 62 | 158 | 1.7 | 4.3 | 0.00 | 0.02 | 0.02 | 57 | 1005.1 |
| 20260505002705 | 62 | 168 | 2.6 | 4.3 | 0.00 | 0.02 | 0.02 | 57 | 1005.1 |
| 20260505001825 | 62 | 153 | 2.6 | 5.2 | 0.00 | 0.02 | 0.02 | 57 | 1005.1 |
| 20260505000904 | 62 | 148 | 2.6 | 5.2 | 0.00 | 0.02 | 0.02 | 57 | 1005.1 |
| 20260505000005 | 61 | 156 | 1.7 | 4.3 | 0.00 | 0.02 | 0.02 | 59 | 1005.1 |
| 20260504235404 | 61 | 160 | 1.7 | 4.3 | 0.00 | 0.02 | 0.02 | 61 | 1005.1 |
| 20260504234525 | 62 | 131 | 1.7 | 4.3 | 0.00 | 0.02 | 0.02 | 60 | 1005.1 |
| 20260504233604 | 62 | 143 | 1.7 | 4.3 | 0.00 | 0.02 | 0.02 | 60 | 1005.1 |
| 20260504232704 | 62 | 114 | 2.6 | 3.5 | 0.00 | 0.02 | 0.02 | 61 | 1005.1 |
| 20260504231804 | 62 | 96 | 1.7 | 4.3 | 0.00 | 0.02 | 0.02 | 61 | 1005.1 |
| 20260504230904 | 62 | 91 | 1.7 | 3.5 | 0.00 | 0.02 | 0.02 | 61 | 1005.1 |
| 20260504230004 | 63 | 83 | 1.7 | 4.3 | 0.00 | 0.02 | 0.02 | 61 | 1005.1 |
| 20260504225404 | 63 | 79 | 1.7 | 3.5 | 0.00 | 0.02 | 0.02 | 60 | 1005.1 |
| 20260504224504 | 64 | 78 | 1.7 | 3.5 | 0.00 | 0.02 | 0.02 | 59 | 1005.1 |
| 20260504223604 | 64 | 81 | 0.9 | 2.6 | 0.00 | 0.02 | 0.02 | 58 | 1005.1 |
| 20260504222705 | 64 | 55 | 0.9 | 2.6 | 0.00 | 0.02 | 0.02 | 58 | 1005.1 |
| 20260504221804 | 64 | 33 | 0.9 | 3.5 | 0.00 | 0.02 | 0.02 | 58 | 1005.1 |
| 20260504220904 | 64 | 321 | 1.7 | 4.3 | 0.00 | 0.02 | 0.02 | 58 | 1005.1 |
| 20260504220004 | 65 | 337 | 2.6 | 4.3 | 0.00 | 0.02 | 0.02 | 57 | 1005.1 |
| 20260504215404 | 65 | 336 | 1.7 | 4.3 | 0.00 | 0.02 | 0.02 | 57 | 1005.1 |
| 20260504214504 | 64 | 352 | 0.9 | 3.5 | 0.00 | 0.02 | 0.02 | 56 | 1005.1 |
| 20260504213625 | 64 | 358 | 0.9 | 3.5 | 0.00 | 0.02 | 0.02 | 58 | 1005.1 |
| 20260504212725 | 64 | 304 | 1.7 | 5.2 | 0.00 | 0.02 | 0.02 | 56 | 1005.1 |
| 20260504211804 | 64 | 240 | 1.7 | 6.1 | 0.00 | 0.02 | 0.02 | 56 | 1005.1 |
| 20260504210905 | 64 | 263 | 2.6 | 7.0 | 0.00 | 0.02 | 0.02 | 56 | 1005.1 |
| 20260504210025 | 63 | 244 | 2.6 | 7.0 | 0.00 | 0.02 | 0.02 | 56 | 1005.1 |
| 20260504205404 | 63 | 253 | 1.7 | 4.3 | 0.00 | 0.02 | 0.02 | 57 | 1005.1 |
| 20260504204525 | 63 | 246 | 1.7 | 4.3 | 0.00 | 0.02 | 0.02 | 58 | 1005.1 |
| 20260504203604 | 63 | 246 | 2.6 | 7.0 | 0.00 | 0.02 | 0.02 | 59 | 1005.1 |
| 20260504202704 | 62 | 235 | 2.6 | 6.1 | 0.00 | 0.02 | 0.02 | 59 | 1005.1 |
| 20260504201804 | 63 | 242 | 1.7 | 5.2 | 0.00 | 0.02 | 0.02 | 59 | 1005.1 |